TimeMDT,TemperatureF,Dew PointF,Humidity,Sea Level PressureIn,VisibilityMPH,Wind Direction,Wind SpeedMPH,Gust SpeedMPH,PrecipitationIn,Events,Conditions,WindDirDegrees,DateUTC
12:53 AM,57.0,27.0,32,29.75,10.0,NW,11.5,-,N/A,,Clear,310,2012-10-16 06:53:00
1:53 AM,55.0,28.0,35,29.76,10.0,NW,17.3,-,N/A,,Clear,320,2012-10-16 07:53:00
2:53 AM,55.0,28.9,37,29.73,10.0,NNW,15.0,-,N/A,,Clear,340,2012-10-16 08:53:00
4:53 AM,51.1,33.1,50,29.73,10.0,North,15.0,-,N/A,,Clear,350,2012-10-16 10:53:00
6:53 AM,46.0,33.1,61,29.80,10.0,WNW,10.4,-,N/A,,Clear,290,2012-10-16 12:53:00
7:53 AM,48.0,34.0,58,29.79,10.0,WSW,6.9,-,N/A,,Clear,250,2012-10-16 13:53:00
8:53 AM,57.9,34.0,41,29.77,10.0,NW,5.8,-,N/A,,Clear,320,2012-10-16 14:53:00
9:53 AM,61.0,33.1,35,29.73,10.0,WSW,4.6,-,N/A,,Clear,240,2012-10-16 15:53:00
10:53 AM,64.9,32.0,29,29.70,10.0,WSW,6.9,-,N/A,,Clear,240,2012-10-16 16:53:00
11:53 AM,69.1,30.9,24,29.65,10.0,SSW,11.5,19.6,N/A,,Clear,210,2012-10-16 17:53:00
12:53 PM,71.1,28.9,21,29.58,10.0,SSW,15.0,-,N/A,,Clear,210,2012-10-16 18:53:00
1:53 PM,73.0,27.0,18,29.52,10.0,SSW,13.8,24.2,N/A,,Clear,210,2012-10-16 19:53:00
2:53 PM,73.0,27.0,18,29.47,10.0,SSW,16.1,24.2,N/A,,Clear,200,2012-10-16 20:53:00
3:53 PM,75.0,26.1,16,29.45,10.0,SSW,19.6,24.2,N/A,,Clear,200,2012-10-16 21:53:00
4:53 PM,72.0,26.1,18,29.44,10.0,South,9.2,-,N/A,,Clear,170,2012-10-16 22:53:00
5:53 PM,71.1,28.0,20,29.43,10.0,South,8.1,-,N/A,,Clear,180,2012-10-16 23:53:00
6:53 PM,66.0,30.0,26,29.44,10.0,South,4.6,-,N/A,,Mostly Cloudy,180,2012-10-17 00:53:00
7:53 PM,66.0,30.0,26,29.42,10.0,Variable,3.5,-,N/A,,Clear,0,2012-10-17 01:53:00
8:53 PM,63.0,32.0,31,29.42,10.0,SW,12.7,-,N/A,,Partly Cloudy,220,2012-10-17 02:53:00
9:41 PM,62.6,35.6,37,29.64,10.0,NW,24.2,38.0,N/A,,Overcast,320,2012-10-17 03:41:00
9:53 PM,62.1,37.9,41,29.52,10.0,NNW,27.6,35.7,N/A,,Overcast,330,2012-10-17 03:53:00
10:53 PM,57.9,36.0,44,29.54,10.0,WNW,33.4,44.9,0.00,Rain,Light Rain,300,2012-10-17 04:53:00
11:53 PM,57.0,30.9,37,29.53,10.0,WNW,29.9,39.1,0.01,,Overcast,300,2012-10-17 05:53:00